sat.trackr.live / text

‹ back to catalog

XCUBE-1

NORAD 62400 · 2024-247Z

PAYLOAD ACTIVE UNKNOWN

§ Identity

Operator
Country
US
Launch date
2024-12-21
Launch site
AFWTR
Launch vehicle
Mass (kg)
RCS (m²)

External: N2YO · Heavens-Above · Gunter

§ Orbital elements

Epoch: 2026-09-22T00:06:05.333760Z

Period
94.06 min
Inclination
44.9954°
Eccentricity
0.0001067
Mean motion
15.30889566 rev/d
Perigee alt
472.4 km
Apogee alt
473.9 km
Semi-major
6,851.3 km
B*
2.0548e-4
RAAN
121.7169°
Arg perigee
53.8537°
Mean anomaly
306.2446°
Rev number
9,779

§ Raw data

XCUBE-11 62400U 24247Z   26265.00422840  .00005950  00000+0  20548-3 0  99922 62400  44.9954 121.7169 0001067  53.8537 306.2446 15.30889566 97799

JSON: /api/v1/satellites/62400 · /tle

For live sub-satellite position, see the globe view (requires WebGL).

§ Visibility from observer

Set your observer location to see the next 7 days of passes ≥ 10°. The values pass through the URL so the page stays shareable.

No JS? Fill the form by hand. The geolocation button needs JavaScript.

§ Radio — SatNOGS DB

ModeDescriptionDownlinkUplink
BPSK Mode S - Transmitter 2.245 GHz
FM Mode X - Transmitter 8.200 GHz

2 transmitters · refreshed weekly from db.satnogs.org